WX5II-2 Weather Reports


Display with metric or nautical units.
time (UTC)temp
F
wind
direction
speed
MPH
gust
MPH
rain 1hr
in
rain 24hr
in
rain mn
in
humidity
%
barometer
mb
20260503202840 79 351 0.0 0.0 0.00 0.00 0.00 25 1018.4
20260503201813 79 351 0.0 0.0 0.00 0.00 0.00 25 1018.4
20260503200750 79 351 0.0 0.0 0.00 0.00 0.00 26 1019.4
20260503194703 78 351 0.0 0.0 0.00 0.00 0.00 26 1019.4
20260503193640 78 351 0.0 0.0 0.00 0.00 0.00 26 1019.4
20260503192616 78 351 0.0 0.0 0.00 0.00 0.00 27 1019.4
20260503191553 78 351 0.0 0.0 0.00 0.00 0.00 26 1019.4
20260503190530 78 351 0.0 0.0 0.00 0.00 0.00 27 1020.4
20260503185505 78 351 0.0 0.0 0.00 0.00 0.00 27 1020.4
20260503184442 78 351 0.0 0.0 0.00 0.00 0.00 28 1020.4
20260503180308 77 351 0.0 0.0 0.00 0.00 0.00 30 1021.4
20260503175245 76 351 0.0 0.0 0.00 0.00 0.00 29 1021.4
20260503174222 76 351 0.0 0.0 0.00 0.00 0.00 30 1021.4
20260503173158 76 351 0.0 0.0 0.00 0.00 0.00 30 1021.4
20260503172135 76 351 0.0 0.0 0.00 0.00 0.00 31 1021.4
20260503171113 76 351 0.0 0.0 0.00 0.00 0.00 31 1021.4
20260503150631 70 351 0.0 0.0 0.00 0.00 0.00 38 1023.4
20260503131217 65 351 0.0 0.0 0.00 0.00 0.00 43 1023.4
20260503130154 64 351 0.0 0.0 0.00 0.00 0.00 44 1023.4
20260503110746 56 351 0.0 0.0 0.00 0.00 0.00 53 1023.4
20260503090312 56 351 0.0 0.0 0.00 0.00 0.00 57 1023.4
20260503081119 58 351 0.0 0.0 0.00 0.00 0.00 50 1022.4
20260503071926 59 351 0.0 0.0 0.00 0.00 0.00 48 1023.4
20260503070903 60 351 0.0 0.0 0.00 0.00 0.00 47 1023.4
20260503054602 60 351 0.0 0.0 0.00 0.00 0.00 46 1023.4
20260503053539 60 351 0.0 0.0 0.00 0.00 0.00 46 1023.4
20260503052517 60 351 0.0 0.0 0.00 0.00 0.00 45 1023.4
20260503051454 61 351 0.0 0.0 0.00 0.00 0.00 46 1023.4
20260503050431 61 351 0.0 0.0 0.00 0.00 0.00 46 1023.4
20260503045408 61 351 0.0 0.0 0.00 0.00 0.00 46 1023.4
20260503044345 61 351 0.0 0.0 0.00 0.00 0.00 46 1023.4
20260503043323 62 351 0.0 0.0 0.00 0.00 0.00 46 1022.4
20260503042300 62 351 0.0 0.0 0.00 0.00 0.00 45 1022.4
20260503041237 62 351 0.0 0.0 0.00 0.00 0.00 45 1022.4
20260503040214 63 351 0.0 0.0 0.00 0.00 0.00 44 1022.4
20260503035152 63 351 0.0 0.0 0.00 0.00 0.00 43 1022.4
20260503033106 64 351 0.0 0.0 0.00 0.00 0.00 42 1022.4
20260503032043 64 351 0.0 0.0 0.00 0.00 0.00 42 1021.4
20260503031020 65 351 0.0 0.0 0.00 0.00 0.00 42 1021.4
20260503025957 65 351 0.0 0.0 0.00 0.00 0.00 41 1021.4
20260503024935 65 351 0.0 0.0 0.00 0.00 0.00 40 1021.4
20260503023913 66 351 0.0 0.0 0.00 0.00 0.00 39 1021.4
20260503022849 66 351 0.0 0.0 0.00 0.00 0.00 38 1021.4
20260503021826 67 351 0.0 0.0 0.00 0.00 0.00 38 1021.4
20260503015740 67 351 0.0 0.0 0.00 0.00 0.00 36 1020.4
20260503014718 67 351 0.0 0.0 0.00 0.00 0.00 35 1020.4
20260503013655 68 351 0.0 0.0 0.00 0.00 0.00 35 1020.4
20260503012632 69 351 0.0 0.0 0.00 0.00 0.00 34 1020.4
20260503011608 69 351 0.0 0.0 0.00 0.00 0.00 34 1019.4
20260503010546 70 351 0.0 0.0 0.00 0.00 0.00 33 1019.4
20260503005522 71 351 0.0 0.0 0.00 0.00 0.00 32 1019.4
20260503004459 71 351 0.0 0.0 0.00 0.00 0.00 31 1019.4
20260503003437 72 351 0.0 0.0 0.00 0.00 0.00 31 1019.4
20260503001351 72 351 0.0 0.0 0.00 0.00 0.00 29 1019.4
20260503000327 73 351 0.0 0.0 0.00 0.00 0.00 29 1019.4
20260502235305 73 351 0.0 0.0 0.00 0.00 0.00 29 1019.4
20260502234241 73 351 0.0 0.0 0.00 0.00 0.00 30 1019.4
20260502233215 73 351 0.0 0.0 0.00 0.00 0.00 29 1018.4
20260502232152 74 351 0.0 0.0 0.00 0.00 0.00 29 1018.4
20260502231128 74 351 0.0 0.0 0.00 0.00 0.00 29 1018.4
20260502230105 74 351 0.0 0.0 0.00 0.00 0.00 28 1019.4
20260502225042 74 351 0.0 0.0 0.00 0.00 0.00 29 1019.4
20260502224019 74 351 0.0 0.0 0.00 0.00 0.00 29 1019.4
20260502222955 74 351 0.0 0.0 0.00 0.00 0.00 28 1019.4
20260502221932 74 351 0.0 0.0 0.00 0.00 0.00 28 1019.4
20260502220909 74 351 0.0 0.0 0.00 0.00 0.00 29 1019.4
20260502214821 74 351 0.0 0.0 0.00 0.00 0.00 28 1019.4
20260502213759 74 351 0.0 0.0 0.00 0.00 0.00 29 1019.4
20260502212735 75 351 0.0 0.0 0.00 0.00 0.00 28 1019.4
20260502211711 74 351 0.0 0.0 0.00 0.00 0.00 29 1019.4
20260502210649 74 351 0.0 0.0 0.00 0.00 0.00 30 1019.4
20260502205625 74 351 0.0 0.0 0.00 0.00 0.00 31 1019.4
20260502204603 74 351 0.0 0.0 0.00 0.00 0.00 31 1019.4